Flag for U.S.A. Weather past 2 weeks in Charleston, West Virginia, U.S.A.

Now
77 °F

Strong thunderstorms. Fog.


Feels Like: 78 °F
Forecast: 71 / 86 °F
Wind: 6 mph from North

Location: Yeager Airport

Current Time: Aug 22, 2014 at 6:13:42 PM

Latest Report: Aug 22, 2014 at 5:01 PM


Visibility: 1 mi

Pressure: 30.00 "Hg

Humidity: 96%

Dew point: 76 °F

Location of CharlestonLocation

Historic Weather in Charleston — Graph

°F

Charleston temperature yesterday

Maximum temperature yesterday: 81 °F (at 12:54 PM)
Minimum temperature yesterday: 67 °F (at 6:54 AM)
Average temperature yesterday: 72 °F

Past Weeks' High & Low Weather Summary

 TemperatureHumidityPressure
High85 °F (Aug 20, 3:54 PM)100% (Aug 8, 1:54 AM)30.11 "Hg (Aug 8, 1:54 AM)
Low54 °F (Aug 16, 4:54 AM)34% (Aug 16, 2:54 PM)29.76 "Hg (Aug 12, 2:54 PM)
Average71 °F85%29.96 "Hg
* Reported Aug 7 5:54 PM — Aug 22 5:01 PM, Charleston, Weather by CustomWeather, © 2014

Note: Actual official high and low records may vary slightly from our data, if they occured in-between our weather recording intervals... More about our weather records

Advertising

Charleston weather history for previous 24 hours

 ConditionsComfort  
Time TempWeatherWind HumidityBarometerVisibility
5:01 PM
Aug 22
77 °FStrong thunderstorms. Fog.6 mph96%30.00 "Hg1 mi
4:03 PM81 °FThunderstorms. Partly sunny.No wind82%29.99 "Hg7 mi
3:54 PM82 °FThunderstorms. Broken clouds.3 mph82%29.96 "Hg7 mi
2:54 PM80 °FThunderstorms. Partly sunny.3 mph81%29.99 "Hg9 mi
1:54 PM79 °FThunderstorms. Mostly cloudy.No wind88%30.00 "Hg7 mi
12:54 PM78 °FMostly cloudy.No wind87%30.01 "Hg10 mi
11:54 AM77 °FMostly cloudy.3 mph90%30.02 "Hg10 mi
10:54 AM76 °FMostly cloudy.No wind91%30.02 "Hg10 mi
9:54 AM74 °FBroken clouds.3 mph94%30.02 "Hg10 mi
8:54 AM72 °FMostly cloudy.No wind97%30.03 "Hg10 mi
7:54 AM71 °FMostly cloudy.No wind100%30.02 "Hg10 mi
6:54 AM70 °FLight rain. Overcast.6 mph100%30.01 "Hg10 mi
5:54 AM70 °FPassing clouds.No wind100%30.00 "Hg7 mi
4:54 AM70 °FLight rain. Fog.6 mph100%30.01 "Hg6 mi
3:54 AM69 °FFog.No wind100%29.99 "Hg4 mi
2:54 AM69 °FFog.No wind100%29.99 "Hg4 mi
1:54 AM70 °FFog.No wind100%30.02 "Hg4 mi
12:54 AM70 °FFog.No wind100%30.04 "Hg4 mi
11:54 PM
Aug 21
71 °FFog.No wind100%30.04 "Hg4 mi
10:54 PM71 °FFog.No wind100%30.04 "Hg4 mi
9:54 PM72 °FFog.No wind97%30.04 "Hg6 mi
8:54 PM71 °FFog.No wind100%30.03 "Hg4 mi
7:54 PM72 °FFog.3 mph100%30.05 "Hg5 mi
6:54 PM73 °FPartly sunny.7 mph94%30.04 "Hg7 mi
Weather by CustomWeather, © 2014

See weather overviewHow to use our weather pages